N1BFO Weather Reports


Display with metric or nautical units.
time (UTC)temp
F
wind
direction
speed
MPH
gust
MPH
rain 1hr
in
rain 24hr
in
rain mn
in
humidity
%
barometer
mb
20260508065527 39 0 0.0 0.0 0.00 0.02 0.00 76 1007.3
20260508065024 39 0 0.0 0.0 0.00 0.02 0.00 74 1007.3
20260508064543 39 0 0.0 0.0 0.00 0.02 0.00 73 1007.3
20260508064028 40 0 0.0 0.0 0.00 0.02 0.00 73 1007.4
20260508063528 40 0 0.0 1.0 0.00 0.02 0.00 74 1007.3
20260508063046 40 0 0.0 1.0 0.00 0.02 0.00 74 1007.4
20260508062528 40 0 0.0 0.0 0.00 0.02 0.00 74 1007.2
20260508062027 40 0 0.0 0.0 0.00 0.02 0.00 74 1007.3
20260508061548 40 0 0.0 0.0 0.00 0.02 0.00 74 1007.3
20260508061024 40 0 0.0 0.0 0.00 0.02 0.00 74 1007.3
20260508060529 40 0 0.0 0.0 0.00 0.02 0.00 74 1007.3
20260508060044 40 0 0.0 0.0 0.00 0.02 0.00 73 1007.3
20260508055527 41 0 0.0 0.0 0.00 0.02 0.00 73 1007.4
20260508055028 41 0 0.0 0.0 0.00 0.02 0.00 72 1007.5
20260508054543 41 0 0.0 0.0 0.00 0.02 0.00 72 1007.6
20260508054029 41 0 0.0 0.0 0.00 0.02 0.00 72 1007.5
20260508053524 41 0 0.0 0.0 0.00 0.02 0.00 72 1007.6
20260508053038 41 0 0.0 0.0 0.00 0.02 0.00 72 1007.6
20260508052528 42 0 0.0 1.0 0.00 0.02 0.00 71 1007.7
20260508052029 42 0 0.0 1.0 0.00 0.02 0.00 72 1007.7
20260508051538 42 0 0.0 0.0 0.00 0.02 0.00 71 1007.7
20260508051028 42 0 0.0 1.0 0.00 0.02 0.00 71 1007.9
20260508050529 42 0 0.0 1.0 0.00 0.02 0.00 70 1007.9
20260508050039 42 0 0.0 1.0 0.00 0.02 0.00 69 1008.0
20260508045529 42 0 0.0 1.0 0.00 0.03 0.00 68 1008.0
20260508045027 43 0 0.0 1.0 0.00 0.03 0.00 67 1008.0
20260508044535 43 0 0.0 1.0 0.00 0.03 0.00 66 1008.0
20260508044027 43 0 0.0 0.0 0.00 0.03 0.00 65 1008.1
20260508043526 43 0 0.0 0.0 0.00 0.03 0.00 64 1008.0
20260508043056 44 0 0.0 0.0 0.00 0.03 0.00 63 1008.1
20260508042528 44 0 0.0 0.0 0.00 0.03 0.00 63 1008.2
20260508042026 44 0 0.0 0.0 0.00 0.03 0.00 63 1008.2
20260508041537 44 0 0.0 0.0 0.00 0.03 0.00 62 1008.2
20260508041028 45 0 0.0 1.0 0.00 0.03 0.00 60 1008.2
20260508040529 45 0 0.0 1.0 0.00 0.03 0.00 59 1008.2
20260508040043 45 0 0.0 1.0 0.00 0.03 0.00 59 1008.1
20260508035527 45 0 0.0 0.0 0.00 0.04 0.03 59 1008.1
20260508035029 45 0 0.0 0.0 0.00 0.04 0.03 58 1008.0
20260508034542 45 0 0.0 1.0 0.00 0.04 0.03 57 1007.9
20260508034029 46 0 0.0 1.0 0.00 0.04 0.03 57 1008.0
20260508033529 46 0 0.0 0.0 0.00 0.04 0.03 56 1008.1
20260508033038 46 0 0.0 1.0 0.00 0.04 0.03 55 1008.1
20260508032528 47 0 0.0 1.0 0.00 0.04 0.03 56 1008.1
20260508032026 47 0 0.0 1.0 0.00 0.04 0.03 55 1007.9
20260508031550 47 0 0.0 1.0 0.00 0.04 0.03 55 1007.9
20260508031028 47 0 0.0 1.0 0.00 0.04 0.03 55 1007.9
20260508030528 47 0 0.0 1.0 0.00 0.04 0.03 55 1007.8
20260508030049 47 0 0.0 2.0 0.00 0.04 0.03 55 1007.8
20260508025528 47 0 0.0 2.0 0.00 0.05 0.03 56 1008.0
20260508025027 47 0 0.0 1.0 0.00 0.05 0.03 55 1008.0
20260508024544 47 0 0.0 1.0 0.00 0.05 0.03 55 1008.0
20260508024029 47 0 0.0 1.0 0.00 0.05 0.03 54 1008.0
20260508023528 47 214 0.0 1.0 0.00 0.05 0.03 55 1007.9
20260508023046 47 203 0.0 0.0 0.00 0.05 0.03 55 1007.9
20260508022529 47 0 0.0 0.0 0.00 0.05 0.03 55 1007.9
20260508022024 47 204 0.0 0.0 0.00 0.05 0.03 54 1007.8
20260508021544 47 0 0.0 0.0 0.00 0.05 0.03 55 1007.9
20260508021027 48 0 0.0 0.0 0.00 0.05 0.03 54 1008.0
20260508020527 48 0 0.0 0.0 0.00 0.05 0.03 54 1007.9
20260508020040 48 0 0.0 0.0 0.00 0.05 0.03 53 1007.9
20260508015527 48 0 0.0 0.0 0.00 0.05 0.03 54 1007.9
20260508015029 48 0 0.0 0.0 0.00 0.05 0.03 53 1007.9
20260508014543 49 0 0.0 0.0 0.00 0.05 0.03 53 1007.7
20260508014029 49 0 0.0 1.0 0.00 0.05 0.03 52 1007.7
20260508013528 49 0 0.0 1.0 0.00 0.05 0.03 52 1007.6
20260508013038 49 0 0.0 1.0 0.00 0.05 0.03 52 1007.5
20260508012528 49 0 0.0 1.0 0.00 0.05 0.03 52 1007.5
20260508012028 49 340 0.0 1.0 0.00 0.05 0.03 51 1007.3
20260508011543 50 0 0.0 2.0 0.00 0.05 0.03 51 1007.2
20260508011028 50 0 0.0 2.0 0.00 0.05 0.03 50 1007.1
20260508010528 50 0 0.0 1.0 0.00 0.05 0.03 49 1007.2
20260508010044 50 0 0.0 1.0 0.00 0.05 0.03 49 1007.0
20260508005527 50 0 0.0 1.0 0.00 0.05 0.03 49 1007.0
20260508005025 50 0 0.0 0.0 0.00 0.05 0.03 48 1006.8
20260508004538 51 0 0.0 1.0 0.00 0.05 0.03 48 1006.7
20260508004027 51 0 0.0 1.0 0.00 0.05 0.03 48 1006.5
20260508003528 51 293 0.0 2.0 0.00 0.05 0.03 47 1006.6
20260508003037 51 14 0.0 2.0 0.00 0.05 0.03 47 1006.5
20260508002527 52 0 0.0 1.0 0.00 0.05 0.03 46 1006.5
20260508002027 52 0 0.0 1.0 0.00 0.05 0.03 45 1006.4
20260508001537 52 0 0.0 1.0 0.00 0.05 0.03 45 1006.3
20260508001027 53 0 0.0 1.0 0.00 0.05 0.03 44 1006.2
20260508000527 53 0 0.0 2.0 0.00 0.05 0.03 43 1006.2
20260508000041 54 0 0.0 2.0 0.00 0.05 0.03 43 1006.2
20260507235526 54 144 0.0 2.0 0.00 0.08 0.03 42 1006.1
20260507235025 55 0 0.0 2.0 0.00 0.08 0.03 40 1006.0
20260507234543 55 33 0.0 2.0 0.00 0.08 0.03 40 1005.9
20260507234028 55 0 0.0 2.0 0.00 0.08 0.03 39 1005.9
20260507233527 55 53 1.0 7.0 0.00 0.08 0.03 38 1005.8
20260507233040 56 301 1.0 7.0 0.00 0.08 0.03 39 1005.9
20260507232528 56 164 1.0 7.0 0.00 0.08 0.03 38 1005.9
20260507232027 56 0 0.0 5.0 0.00 0.08 0.03 39 1005.7
20260507231538 57 0 0.0 5.0 0.00 0.08 0.03 39 1005.8
20260507231027 57 122 0.0 3.0 0.00 0.08 0.03 37 1005.8
20260507230526 57 125 1.0 6.0 0.00 0.08 0.03 37 1005.7
20260507230036 57 281 2.0 6.0 0.00 0.08 0.03 36 1005.7
20260507225526 57 109 1.0 9.0 0.00 0.11 0.03 37 1005.7
20260507225026 57 0 1.0 9.0 0.00 0.11 0.03 38 1005.6
20260507224541 57 349 1.0 6.0 0.00 0.11 0.03 36 1005.6
20260507224027 57 360 1.0 7.0 0.00 0.11 0.03 36 1005.6
20260507223527 58 32 2.0 7.0 0.00 0.11 0.03 36 1005.5
20260507223043 58 141 1.0 6.0 0.00 0.11 0.03 35 1005.5
20260507222528 58 269 1.0 6.0 0.00 0.11 0.03 36 1005.5
20260507222025 58 0 0.0 2.0 0.00 0.11 0.03 37 1005.5
20260507221539 58 0 0.0 6.0 0.00 0.11 0.03 35 1005.4
20260507221026 59 151 1.0 6.0 0.00 0.11 0.03 35 1005.4
20260507220527 59 35 1.0 5.0 0.00 0.11 0.03 35 1005.4
20260507220037 59 14 1.0 4.0 0.00 0.11 0.03 37 1005.4
20260507215528 59 50 0.0 4.0 0.00 0.12 0.03 36 1005.3
20260507215028 59 15 0.0 4.0 0.00 0.12 0.03 36 1005.3
20260507214541 59 329 1.0 4.0 0.00 0.12 0.03 35 1005.3
20260507214028 59 284 1.0 6.0 0.00 0.12 0.03 34 1005.2
20260507213527 60 350 1.0 8.0 0.00 0.12 0.03 33 1005.2
20260507213041 60 353 2.0 8.0 0.00 0.12 0.03 34 1005.2
20260507212526 60 58 1.0 8.0 0.00 0.12 0.03 36 1005.2
20260507212025 60 13 2.0 8.0 0.00 0.12 0.03 34 1005.0
20260507211540 60 264 2.0 8.0 0.00 0.12 0.03 35 1005.0
20260507211027 60 87 0.0 6.0 0.00 0.12 0.03 36 1005.0
20260507210527 60 20 1.0 5.0 0.00 0.12 0.03 33 1005.1
20260507210039 61 2 2.0 5.0 0.00 0.12 0.03 34 1005.1
20260507205528 61 80 2.0 6.0 0.00 0.16 0.03 33 1005.1
20260507205028 61 244 1.0 6.0 0.00 0.16 0.03 36 1005.0
20260507204538 62 84 2.0 6.0 0.00 0.16 0.03 34 1005.1
20260507204027 62 269 2.0 7.0 0.00 0.16 0.03 34 1005.0
20260507203528 62 236 1.0 7.0 0.00 0.16 0.03 34 1005.0
20260507203036 62 355 2.0 9.0 0.00 0.16 0.03 34 1004.9
20260507202528 63 11 1.0 9.0 0.00 0.16 0.03 32 1004.9
20260507202028 63 41 3.0 8.0 0.00 0.16 0.03 33 1004.9
20260507201546 63 195 2.0 5.0 0.00 0.16 0.03 34 1004.8
20260507201028 63 148 2.0 7.0 0.00 0.16 0.03 35 1004.9
20260507200529 63 281 1.0 7.0 0.00 0.16 0.03 35 1004.9
20260507200048 62 203 1.0 6.0 0.00 0.16 0.03 36 1004.9
20260507195528 63 7 1.0 6.0 0.00 0.20 0.03 35 1005.0
20260507195031 63 275 1.0 6.0 0.00 0.20 0.03 36 1005.0
20260507194547 63 159 1.0 6.0 0.00 0.20 0.03 36 1005.1
20260507194027 63 122 2.0 8.0 0.00 0.20 0.03 36 1005.2
20260507193527 63 137 1.0 8.0 0.00 0.20 0.03 34 1005.2
20260507193040 64 348 1.0 4.0 0.00 0.20 0.03 34 1005.2
20260507192528 63 77 1.0 5.0 0.00 0.20 0.03 35 1005.2
20260507192025 63 258 2.0 8.0 0.00 0.20 0.03 34 1005.3
20260507191543 63 234 2.0 8.0 0.00 0.20 0.03 36 1005.4
20260507191028 63 72 2.0 7.0 0.00 0.20 0.03 35 1005.5
20260507190527 63 154 2.0 7.0 0.00 0.20 0.03 32 1005.4
20260507190042 63 106 1.0 8.0 0.00 0.20 0.03 32 1005.5
20260507185527 63 227 3.0 8.0 0.00 0.22 0.03 32 1005.6
20260507185025 63 62 1.0 4.0 0.00 0.22 0.03 33 1005.6
20260507184554 63 37 1.0 6.0 0.00 0.22 0.03 31 1005.6
20260507184024 63 295 1.0 6.0 0.00 0.22 0.03 35 1005.6
20260507183525 64 153 2.0 6.0 0.00 0.22 0.03 31 1005.6
20260507183045 64 8 1.0 11.0 0.00 0.22 0.03 39 1005.7
20260507182525 63 337 1.0 11.0 0.00 0.22 0.03 37 1005.6
20260507182025 63 211 3.0 11.0 0.00 0.22 0.03 35 1005.6
20260507181539 63 11 1.0 9.0 0.00 0.22 0.03 33 1005.6
20260507181031 63 332 3.0 9.0 0.00 0.22 0.03 33 1005.8
20260507180524 63 79 2.0 7.0 0.00 0.22 0.03 40 1005.7
20260507180043 63 354 2.0 7.0 0.00 0.22 0.03 34 1005.7
20260507175525 64 66 3.0 6.0 0.00 0.22 0.03 32 1005.8
20260507175024 64 27 1.0 6.0 0.00 0.22 0.03 37 1005.7
20260507174536 64 7 1.0 5.0 0.00 0.22 0.03 35 1005.7
20260507174026 64 312 1.0 7.0 0.00 0.22 0.03 34 1005.8
20260507173527 64 268 0.0 7.0 0.00 0.22 0.03 37 1005.7
20260507173043 63 339 3.0 10.0 0.00 0.22 0.03 39 1005.5
20260507172528 63 273 1.0 10.0 0.00 0.22 0.03 33 1005.6
20260507172025 63 350 3.0 12.0 0.00 0.22 0.03 36 1005.7
20260507171547 62 328 1.0 13.0 0.00 0.22 0.03 38 1005.9
20260507171026 63 14 4.0 13.0 0.00 0.22 0.03 34 1005.9
20260507170526 63 54 2.0 8.0 0.00 0.22 0.03 38 1006.0
20260507170045 62 101 2.0 8.0 0.00 0.22 0.03 44 1006.2
20260507165527 63 238 2.0 8.0 0.00 0.22 0.03 40 1006.2
20260507165027 62 262 2.0 7.0 0.00 0.22 0.03 40 1006.2
20260507164559 63 203 2.0 9.0 0.00 0.22 0.03 41 1006.4
20260507164024 63 170 2.0 9.0 0.00 0.22 0.03 40 1006.4
20260507163526 62 274 2.0 12.0 0.00 0.22 0.03 43 1006.4
20260507163042 62 130 2.0 12.0 0.00 0.22 0.03 47 1006.7
20260507162525 62 3 4.0 12.0 0.00 0.22 0.03 44 1006.7
20260507162025 62 4 2.0 14.0 0.00 0.22 0.03 46 1006.7
20260507161547 62 63 3.0 14.0 0.00 0.22 0.03 44 1006.7
20260507161025 62 333 3.0 14.0 0.00 0.22 0.03 48 1006.7
20260507160528 61 88 3.0 11.0 0.00 0.22 0.03 49 1006.6
20260507160040 62 58 4.0 11.0 0.00 0.22 0.03 50 1006.8
20260507155528 62 40 3.0 7.0 0.00 0.22 0.03 52 1006.7
20260507155026 63 44 1.0 5.0 0.00 0.22 0.03 49 1006.7
20260507154537 61 326 2.0 8.0 0.00 0.22 0.03 50 1006.7
20260507154028 60 103 1.0 8.0 0.00 0.22 0.03 60 1006.8
20260507153525 60 291 2.0 8.0 0.00 0.22 0.03 53 1006.8
20260507153039 61 0 3.0 7.0 0.00 0.22 0.03 55 1006.8
20260507152524 62 274 1.0 9.0 0.00 0.22 0.03 53 1006.8
20260507152028 61 236 2.0 9.0 0.00 0.22 0.03 55 1006.9
20260507151535 59 1 2.0 8.0 0.00 0.22 0.03 55 1006.9
20260507151025 59 125 2.0 8.0 0.00 0.22 0.03 56 1007.1
20260507150526 60 347 3.0 8.0 0.00 0.22 0.03 56 1007.1
20260507150043 59 165 1.0 6.0 0.00 0.22 0.03 59 1007.2
20260507145524 58 224 1.0 7.0 0.00 0.22 0.03 59 1007.3
20260507145031 59 19 2.0 7.0 0.00 0.22 0.03 62 1007.3
20260507144540 58 1 0.0 7.0 0.00 0.22 0.03 61 1007.3
20260507144025 58 58 1.0 7.0 0.00 0.22 0.03 59 1007.4
20260507143526 59 46 2.0 8.0 0.00 0.22 0.03 59 1007.4
20260507143100 59 61 3.0 8.0 0.00 0.22 0.03 59 1007.4
20260507142527 59 339 0.0 5.0 0.00 0.22 0.03 64 1007.3
20260507142025 58 304 2.0 5.0 0.00 0.22 0.03 58 1007.3
20260507141604 58 262 0.0 3.0 0.00 0.22 0.03 61 1007.4
20260507141025 58 232 0.0 4.0 0.00 0.22 0.03 62 1007.4
20260507140525 58 345 0.0 4.0 0.00 0.22 0.03 63 1007.4
20260507140042 57 47 1.0 4.0 0.00 0.22 0.03 62 1007.4
20260507135528 58 293 1.0 4.0 0.00 0.22 0.03 65 1007.5
20260507135028 57 210 2.0 4.0 0.00 0.22 0.03 63 1007.3
20260507134540 58 120 1.0 3.0 0.00 0.22 0.03 62 1007.3
20260507134029 58 204 1.0 4.0 0.00 0.22 0.03 62 1007.3
20260507133530 58 87 1.0 5.0 0.00 0.22 0.03 70 1007.2
20260507133037 57 134 1.0 5.0 0.00 0.22 0.03 65 1007.2
20260507132524 57 79 0.0 5.0 0.00 0.22 0.03 68 1007.4
20260507132024 57 333 1.0 7.0 0.00 0.22 0.03 66 1007.5
20260507131546 56 243 0.0 7.0 0.00 0.22 0.03 72 1007.6
20260507131028 55 69 2.0 7.0 0.00 0.22 0.03 70 1007.7
20260507130527 55 10 3.0 7.0 0.00 0.22 0.03 68 1007.7
20260507130041 55 325 2.0 7.0 0.00 0.22 0.03 69 1007.7
20260507125528 55 78 2.0 6.0 0.00 0.22 0.03 70 1007.7
20260507125027 56 91 1.0 3.0 0.00 0.22 0.03 70 1007.7
20260507124542 55 349 0.0 4.0 0.00 0.22 0.03 74 1007.8
20260507124031 55 262 0.0 4.0 0.00 0.22 0.03 75 1007.7
20260507123525 54 288 1.0 4.0 0.00 0.22 0.03 77 1007.8
20260507123040 53 51 0.0 6.0 0.00 0.22 0.03 81 1007.9
20260507122524 53 13 3.0 6.0 0.00 0.22 0.03 76 1007.9
20260507122027 52 25 1.0 4.0 0.00 0.22 0.03 80 1008.0
20260507121542 51 4 0.0 5.0 0.00 0.22 0.03 83 1007.9
20260507121028 50 37 0.0 5.0 0.00 0.22 0.03 82 1008.0
20260507120529 50 43 1.0 5.0 0.00 0.22 0.03 81 1008.0
20260507120036 51 4 0.0 4.0 0.00 0.22 0.03 82 1008.0
20260507115525 51 298 1.0 6.0 0.00 0.22 0.03 82 1008.1
20260507115030 51 12 1.0 6.0 0.00 0.22 0.03 83 1007.9
20260507114541 50 26 0.0 1.0 0.00 0.22 0.03 85 1008.0
20260507114031 50 20 0.0 2.0 0.00 0.22 0.03 87 1007.9
20260507113528 49 0 0.0 2.0 0.00 0.22 0.03 87 1007.9
20260507113037 49 15 0.0 1.0 0.00 0.22 0.03 88 1008.0
20260507112530 49 356 0.0 1.0 0.00 0.22 0.03 89 1008.0
20260507112025 48 0 0.0 2.0 0.00 0.22 0.03 89 1007.9
20260507111536 48 0 0.0 2.0 0.00 0.22 0.03 89 1007.8
20260507111024 48 0 0.0 0.0 0.00 0.22 0.03 91 1007.7
20260507110527 48 0 0.0 0.0 0.00 0.22 0.03 91 1007.5
20260507110050 47 0 0.0 0.0 0.00 0.22 0.03 91 1007.7
20260507105525 47 0 0.0 0.0 0.00 0.22 0.03 91 1007.7
20260507105027 47 0 0.0 0.0 0.00 0.22 0.03 91 1007.9
20260507104546 47 0 0.0 0.0 0.00 0.22 0.03 91 1007.8
20260507104025 47 0 0.0 2.0 0.00 0.22 0.03 91 1007.6
20260507103524 47 0 0.0 2.0 0.00 0.22 0.03 91 1007.3
20260507103042 47 6 0.0 1.0 0.00 0.22 0.03 91 1007.2
20260507102525 47 0 0.0 0.0 0.00 0.22 0.03 91 1007.1
20260507102027 47 0 0.0 1.0 0.00 0.22 0.03 91 1006.9
20260507101542 47 0 0.0 1.0 0.00 0.22 0.03 91 1007.0
20260507101028 47 0 0.0 1.0 0.00 0.22 0.03 90 1006.9
20260507100525 47 25 0.0 1.0 0.00 0.22 0.03 91 1007.0
20260507100046 47 0 0.0 1.0 0.00 0.22 0.03 90 1007.1
20260507095530 47 0 0.0 1.0 0.00 0.22 0.03 90 1007.0
20260507095028 47 0 0.0 2.0 0.00 0.22 0.03 90 1006.8
20260507094537 47 344 0.0 3.0 0.00 0.22 0.03 90 1006.7
20260507094026 47 343 0.0 3.0 0.00 0.22 0.03 90 1007.2
20260507093525 47 0 0.0 1.0 0.00 0.22 0.03 90 1007.3
20260507093037 47 107 0.0 4.0 0.00 0.22 0.03 90 1007.0
20260507092524 48 0 0.0 4.0 0.00 0.22 0.03 90 1007.1
20260507092031 48 0 0.0 2.0 0.00 0.22 0.03 90 1007.2
20260507091543 48 0 0.0 2.0 0.00 0.22 0.03 90 1007.0
20260507091025 48 0 0.0 1.0 0.00 0.22 0.03 90 1007.3
20260507090528 48 0 0.0 4.0 0.00 0.22 0.03 89 1007.3
20260507090049 48 280 0.0 4.0 0.00 0.22 0.03 89 1007.5
20260507085528 48 279 0.0 4.0 0.00 0.22 0.03 89 1007.4
20260507085027 48 0 0.0 1.0 0.00 0.22 0.03 90 1007.2
20260507084548 48 0 0.0 2.0 0.01 0.22 0.03 90 1007.3
20260507084028 48 0 0.0 2.0 0.01 0.22 0.03 90 1007.4
20260507083525 49 342 0.0 3.0 0.02 0.22 0.03 90 1006.9
20260507083039 49 23 1.0 3.0 0.02 0.22 0.03 90 1007.0
20260507082528 49 0 0.0 3.0 0.02 0.22 0.03 91 1006.9
20260507082028 49 0 0.0 3.0 0.02 0.22 0.03 91 1006.8
20260507081534 49 0 0.0 2.0 0.02 0.22 0.03 91 1006.7
20260507081027 49 353 0.0 2.0 0.02 0.22 0.03 91 1006.6
20260507080528 49 348 0.0 3.0 0.02 0.22 0.03 91 1006.7
20260507080041 49 0 0.0 3.0 0.02 0.22 0.03 90 1006.7
20260507075525 50 0 0.0 3.0 0.02 0.22 0.03 90 1006.7
20260507075025 50 0 0.0 3.0 0.02 0.22 0.03 90 1006.9
20260507074541 50 36 0.0 3.0 0.01 0.21 0.02 90 1007.0
20260507074027 50 115 0.0 5.0 0.01 0.21 0.02 89 1006.6
20260507073528 50 0 1.0 5.0 0.00 0.20 0.01 90 1006.8
20260507073040 51 0 1.0 5.0 0.00 0.20 0.01 91 1007.0
20260507072530 51 0 0.0 4.0 0.00 0.20 0.01 92 1006.5
20260507072026 51 0 0.0 2.0 0.00 0.20 0.01 92 1006.5
20260507071537 51 0 0.0 2.0 0.00 0.20 0.01 92 1006.2
20260507071031 51 0 0.0 1.0 0.00 0.20 0.01 93 1006.2
20260507070527 51 0 0.0 1.0 0.00 0.20 0.01 92 1006.1
20260507070043 51 0 0.0 0.0 0.00 0.20 0.01 92 1006.2